Theta_e
316 316 318 318 318 318 326 327 329 330 326 325 325 327 328 330 328 326 326 324 325 326 327 326 326 325 325 327 328 330 327 337 339 345 348 346 342 351 350 350 349 351 347 351
316 315 317 317 317 318 322 325 324 324 327 322 322 322 322 323 324 328 325 324 324 326 327 327 328 329 329 327 326 327 328 328 337 338 338 345 346 344 347 347 349 347 351 334
315 316 317 317 318 320 320 320 322 321 321 321 321 322 322 321 321 327 326 324 324 327 326 328 330 332 332 332 330 333 334 330 328 342 342 343 343 347 346 348 349 350 349 348
316 317 316 317 318 319 319 320 320 321 322 321 321 322 324 323 322 326 326 324 325 326 327 329 331 334 335 335 333 333 331 339 330 333 340 347 346 343 346 344 349 349 347 345
316 317 316 317 318 319 319 320 320 321 321 321 322 321 321 324 322 322 324 323 324 326 327 330 332 334 336 340 341 340 339 343 342 343 343 345 346 348 347 346 348 351 349 349
317 317 318 317 318 319 320 321 321 321 322 323 322 321 321 323 324 324 323 326 327 327 329 329 331 333 336 340 342 343 343 341 342 345 346 344 347 350 348 346 349 348 347 348
317 318 318 318 318 319 320 323 323 321 321 321 322 322 324 325 325 323 324 326 325 325 326 327 328 330 332 333 334 336 337 339 341 343 343 342 343 344 345 346 344 343 344 344
317 320 318 320 320 320 320 322 322 323 323 321 322 323 324 325 324 324 326 326 325 325 325 326 326 326 327 328 328 328 329 329 330 330 333 338 336 333 336 338 336 335 335 332
319 322 320 320 321 321 321 321 322 324 324 326 324 327 327 326 328 328 327 327 326 326 327 326 325 326 326 327 327 328 327 327 327 325 326 320 320 325 327 329 330 330 328 327
322 321 321 320 320 321 321 321 321 323 329 331 327 329 328 328 327 328 328 327 326 326 325 325 325 327 327 326 325 325 324 325 324 323 322 323 321 320 320 320 320 320 320 321
323 324 323 321 321 321 322 324 325 325 325 330 332 332 329 329 328 328 328 326 325 324 324 324 323 324 323 324 324 323 323 322 322 321 320 320 320 319 320 320 319 319 318 318
324 326 325 323 323 322 322 322 327 330 327 327 332 333 330 329 328 327 325 325 325 324 324 323 323 323 322 322 321 320 320 319 319 319 318 318 318 318 318 318 317 316 315 315
325 328 331 325 326 324 323 325 324 326 329 328 332 332 329 328 329 326 326 325 324 323 322 322 322 321 321 320 319 319 319 318 318 318 317 317 316 316 316 316 316 316 315 315
323 326 329 332 328 326 324 325 326 327 333 328 328 331 329 327 328 327 325 324 322 322 321 320 320 320 319 319 319 319 318 318 317 317 316 316 315 315 314 313 313 313 313 313
324 324 326 328 327 326 326 324 323 323 325 328 326 327 326 326 326 322 320 319 319 319 319 319 319 319 319 319 319 319 318 318 317 316 316 315 314 314 313 313 312 311 311 311
324 327 328 327 324 322 324 324 324 323 324 325 326 326 325 324 319 318 319 320 320 319 319 319 319 318 319 318 318 318 317 316 316 315 314 314 313 312 311 311 311 310 310 310
327 325 328 329 326 322 322 322 321 320 320 321 320 319 320 320 320 320 320 320 320 319 319 319 318 318 317 317 316 316 315 314 314 313 313 312 311 310 310 309 309 309 309 309
327 323 326 326 326 322 320 319 318 318 318 318 318 318 319 319 319 319 320 320 320 319 318 318 317 317 316 316 315 315 314 313 313 313 312 311 310 309 308 307 307 307 307 307
327 328 329 327 324 320 319 318 317 317 318 320 321 319 320 320 320 320 320 319 319 318 318 317 316 316 315 315 314 313 313 313 312 311 310 309 308 307 307 307 307 306 306 306
321 325 328 323 325 321 324 320 318 319 325 321 320 320 319 318 318 319 317 317 316 315 315 315 315 314 314 313 312 312 312 311 309 308 308 307 307 306 305 304 302 301 301 301
321 325 324 322 324 325 321 319 316 317 325 319 318 317 316 316 317 316 316 315 315 314 314 313 313 313 312 312 311 310 309 308 307 307 306 305 304 302 300 299 299 299 299 300
322 324 325 325 322 324 320 317 322 322 320 317 315 315 316 316 315 314 314 314 314 313 312 312 311 311 310 309 308 307 306 306 305 304 303 302 299 297 297 297 299 301 299 299
321 322 325 323 324 322 320 319 318 317 315 315 315 315 314 313 313 312 313 312 312 312 310 309 308 307 307 306 306 305 304 303 302 301 298 296 296 297 298 298 298 300 300 299
321 320 321 322 322 320 317 316 315 314 314 314 313 313 313 312 312 311 310 309 308 307 306 306 306 305 305 304 302 300 299 298 297 296 295 295 297 297 297 298 299 300 300 299
320 320 321 321 319 316 314 315 314 314 313 312 312 311 309 308 307 306 305 305 305 305 305 304 303 302 300 298 297 296 295 294 293 293 294 295 294 296 297 299 300 301 302 298
318 318 317 320 317 316 315 314 313 312 312 310 308 306 305 305 305 305 304 304 304 303 301 300 298 297 296 295 294 293 292 292 292 292 293 294 294 296 297 299 303 303 301 302
Wind_Speed
28 17 22 27 24 25 24 21 25 23 15 20 19 16 13 17 17 21 20 21 25 24 23 5 3 8 11 10 8 9 18 16 18 17 14 17 16 18 17 20 20 25 28 27
17 20 24 22 26 27 28 26 23 20 20 18 15 14 13 16 16 29 19 14 18 32 23 9 8 11 12 13 16 17 18 22 20 22 23 18 17 13 20 19 23 25 29 31
17 20 21 25 28 26 23 25 22 14 12 14 9 14 13 14 22 28 20 17 15 12 16 13 5 7 8 10 9 9 14 21 22 21 16 20 24 18 19 21 23 26 27 20
20 22 25 23 21 20 22 24 22 20 16 12 17 13 18 16 18 19 32 29 22 16 7 6 5 1 3 4 5 6 11 8 12 19 23 15 20 21 19 18 26 26 25 23
21 21 24 20 23 22 22 23 11 15 13 16 20 14 10 20 16 17 12 16 19 17 11 7 3 0 2 3 4 3 0 3 7 8 16 19 13 17 16 16 19 19 23 21
22 21 21 23 21 21 21 14 16 17 11 12 19 15 14 17 21 20 18 12 11 9 11 7 6 4 6 7 8 9 7 4 1 6 6 13 15 10 17 17 10 16 20 20
18 21 19 18 19 15 15 11 8 9 10 13 18 16 14 12 23 22 19 17 12 6 10 5 7 11 10 10 10 11 9 8 7 6 6 3 7 9 10 12 11 9 9 13
16 13 22 15 16 21 22 18 11 17 11 16 18 17 15 12 24 26 26 24 21 17 14 13 8 11 10 9 10 9 10 9 8 9 4 2 6 5 4 5 2 3 5 4
17 12 18 17 18 16 19 18 20 11 14 10 11 13 13 19 19 24 24 24 23 16 14 14 12 11 10 6 5 4 4 4 6 4 4 1 1 3 5 4 7 9 7 9
9 9 18 15 14 17 17 13 16 9 16 4 4 14 11 18 19 20 18 19 14 11 10 9 5 7 3 3 4 3 3 3 3 3 4 6 7 10 12 13 14 17 20 22
11 10 14 13 13 19 10 13 13 14 11 10 4 5 8 16 15 15 17 20 17 10 8 9 9 6 4 5 2 1 2 3 5 6 8 9 12 13 13 16 17 17 19 21
12 6 13 16 16 16 16 14 11 7 12 7 5 8 3 4 10 11 18 18 15 9 2 4 1 2 1 1 4 6 4 7 7 8 10 12 14 14 16 19 21 21 23 24
12 1 8 7 9 15 10 13 11 12 4 9 6 1 9 11 14 15 12 8 8 10 8 8 4 7 8 6 6 7 7 9 10 11 13 15 17 19 21 22 24 26 27 28
5 3 9 7 6 9 16 16 8 5 2 7 11 15 18 6 12 10 10 10 7 11 8 6 7 4 6 7 8 9 10 12 13 16 18 20 22 24 27 29 28 27 27 27
3 4 2 3 5 8 8 10 12 10 6 9 13 7 9 6 8 2 3 3 6 10 10 5 5 7 6 7 9 12 13 14 17 20 21 23 26 26 26 28 29 31 31 33
4 3 6 1 6 1 4 7 10 10 10 6 10 14 21 22 7 2 3 4 2 7 5 3 7 9 10 10 9 11 14 16 18 23 25 26 28 29 28 29 30 31 31 30
6 4 3 3 10 8 11 14 11 10 9 11 10 1 6 9 5 2 4 2 4 6 5 3 5 6 7 12 13 14 16 20 23 24 26 27 28 29 29 29 28 28 29 30
11 9 10 7 17 7 8 10 6 8 10 9 5 3 8 4 3 4 5 11 12 14 10 8 8 9 12 14 16 18 20 22 24 26 27 28 28 29 29 30 32 31 32 35
11 13 3 4 6 9 11 5 4 4 9 12 9 5 10 13 8 17 13 13 10 9 9 9 12 14 15 16 20 22 21 23 24 26 28 29 28 29 29 29 33 38 41 45
6 6 2 3 3 6 9 8 6 1 8 8 6 8 11 9 3 9 9 8 8 9 11 14 16 17 19 21 22 20 21 23 25 27 27 27 27 29 34 41 45 44 39 42
8 7 5 5 3 6 10 7 1 5 5 8 7 7 8 6 10 16 14 12 10 13 14 16 19 21 20 16 19 20 21 23 23 24 26 29 34 40 38 35 37 42 44 39
8 5 4 3 3 3 8 3 3 7 5 6 6 8 10 12 13 15 14 14 14 16 17 19 21 21 21 22 22 21 21 23 26 28 32 37 40 35 38 42 37 32 32 33
5 6 5 3 4 11 18 16 11 6 3 6 10 10 10 10 10 12 14 16 18 20 22 21 23 24 23 22 21 20 20 26 32 36 38 37 38 42 33 31 31 31 29 31
5 11 4 7 12 10 10 9 6 6 7 8 7 7 10 12 14 16 18 20 21 21 22 21 21 21 21 21 21 22 26 33 39 40 41 39 37 33 32 29 27 28 29 31
5 7 11 12 12 13 13 12 8 13 10 7 7 10 12 13 14 16 18 18 19 19 19 19 19 21 22 23 24 26 29 34 37 37 37 34 33 31 29 26 27 27 28 27
2 6 2 7 10 13 13 11 12 8 8 9 9 11 11 12 13 15 16 17 18 19 20 20 20 21 22 23 27 29 27 32 35 36 33 31 29 28 26 27 29 28 26 22
Wind_Direction
196 206 208 216 224 228 214 206 222 235 193 185 211 223 235 228 223 214 248 267 271 266 296 301 281 302 285 264 214 224 238 220 225 214 225 251 233 236 243 242 240 245 246 238
191 213 210 212 221 223 215 215 227 232 187 198 200 231 240 255 221 218 217 266 269 254 278 339 321 328 322 298 280 263 249 244 228 234 233 226 254 250 243 247 241 244 242 278
195 200 219 211 225 215 222 235 236 235 175 184 215 234 234 229 248 219 219 253 273 203 209 286 343 306 300 300 286 278 270 257 238 227 231 235 233 225 230 237 240 249 252 228
207 207 213 210 222 217 219 228 241 213 191 218 198 243 208 212 219 204 221 202 186 209 195 207 248 276 329 295 287 299 266 278 246 232 224 229 245 247 243 246 242 235 253 246
213 208 198 217 213 209 231 219 221 241 216 212 207 219 240 188 209 212 219 207 190 167 184 156 97 59 41 48 43 355 192 223 206 227 234 235 253 246 249 269 254 236 230 235
216 216 211 203 217 223 228 233 195 234 230 211 239 204 234 193 197 200 210 147 111 120 126 141 132 99 78 67 58 54 50 32 220 232 263 247 240 240 236 252 247 233 235 244
217 214 218 193 213 203 216 210 208 202 227 239 227 212 235 188 182 191 185 141 143 164 131 110 119 98 86 78 66 64 67 73 89 113 120 187 247 272 276 277 271 253 265 248
207 215 188 189 208 200 201 207 217 199 211 229 232 215 230 136 181 161 139 149 169 168 164 155 129 130 115 88 74 77 83 73 80 73 86 157 140 127 158 209 262 177 215 64
206 206 185 192 219 216 191 220 236 305 295 254 234 99 100 124 128 142 148 149 161 164 142 156 153 150 117 92 92 92 82 93 76 62 60 32 288 290 302 287 290 267 271 262
239 213 193 176 210 232 227 210 228 216 253 346 222 155 167 164 157 151 154 154 138 153 173 182 150 141 89 168 189 111 58 32 349 335 304 295 297 283 279 278 265 264 264 267
220 255 204 173 197 218 190 232 254 244 246 230 158 330 295 166 166 167 150 152 149 166 186 184 193 171 204 200 144 321 343 318 314 326 321 316 308 302 291 284 287 286 282 280
158 318 167 203 189 230 236 226 233 244 253 306 77 132 79 84 127 160 164 159 156 151 124 301 90 115 165 270 277 307 322 316 295 310 310 307 303 300 293 292 290 287 281 278
140 341 188 176 315 229 233 235 253 223 345 256 251 270 283 164 155 160 222 130 191 179 186 231 225 249 224 240 260 282 302 305 303 303 301 294 294 291 291 289 287 286 287 286
79 174 174 203 187 237 213 238 227 123 119 267 251 152 191 143 135 163 201 188 219 153 198 219 222 266 249 244 268 279 290 298 299 300 300 297 297 295 295 297 299 297 293 289
122 206 175 138 81 288 265 243 235 239 267 196 256 2 331 80 288 130 95 333 305 303 300 262 199 228 270 286 287 285 288 295 302 299 296 296 298 299 297 294 292 291 291 290
129 147 71 98 224 243 154 214 248 254 237 315 284 266 179 193 112 69 235 177 259 273 261 238 243 254 266 277 292 301 301 300 299 298 299 298 298 298 299 296 294 294 293 290
120 94 74 279 281 231 227 228 223 229 233 215 227 263 87 89 103 179 224 227 232 245 246 268 311 314 330 318 307 300 304 302 299 297 297 299 299 299 298 297 296 295 293 290
135 115 182 194 192 209 88 39 18 224 210 209 234 44 55 29 313 260 353 32 37 33 24 359 334 325 311 306 304 303 305 298 298 298 299 300 300 299 299 299 298 296 288 283
183 190 200 143 185 124 130 116 98 147 93 49 53 78 76 48 12 59 40 41 25 4 339 321 314 306 309 305 302 301 298 300 301 301 300 300 300 300 300 293 285 281 281 281
135 49 158 208 200 208 104 101 76 36 95 54 57 41 22 13 296 69 38 353 338 331 322 309 301 299 295 302 298 300 303 304 305 302 299 296 290 288 286 286 290 293 292 289
169 143 162 220 205 68 111 102 118 209 106 63 34 21 351 325 352 4 4 351 330 318 307 302 295 299 304 310 316 313 310 310 303 294 288 287 289 295 298 292 291 295 295 295
159 120 185 204 168 154 125 120 35 112 103 39 7 0 18 0 345 329 326 323 315 305 312 313 314 320 323 322 320 319 316 297 293 293 293 294 300 299 299 302 301 303 308 307
156 156 176 161 124 104 88 94 101 81 37 19 37 18 354 338 334 317 316 321 325 326 328 325 321 318 319 326 318 314 311 299 293 296 301 304 302 307 306 309 311 309 310 310
94 131 117 125 134 124 107 94 83 61 50 37 15 357 350 341 327 328 327 327 325 325 326 324 323 320 320 315 325 317 309 301 302 305 305 309 311 317 317 313 312 313 313 312
44 162 165 121 136 131 108 86 68 66 62 40 10 357 343 339 333 332 331 331 328 327 331 330 330 325 322 321 317 311 311 307 305 308 312 317 316 316 317 317 318 317 316 315
127 54 192 111 68 97 112 110 85 69 46 23 0 349 352 350 346 343 337 339 346 338 334 330 327 323 320 317 311 315 309 302 309 315 319 319 320 322 322 323 322 322 325 327